TimeEST,TemperatureF,Dew PointF,Humidity,Sea Level PressureIn,VisibilityMPH,Wind Direction,Wind SpeedMPH,Gust SpeedMPH,PrecipitationIn,Events,Conditions,WindDirDegrees,DateUTC
12:03 AM,53.6,48.2,82,30.21,10.0,North,10.4,-,N/A,,Overcast,10,2012-11-17 05:03:00
12:56 AM,53.1,48.9,86,30.22,10.0,North,5.8,-,N/A,,Overcast,10,2012-11-17 05:56:00
1:56 AM,53.1,48.9,86,30.20,10.0,North,8.1,-,N/A,,Overcast,360,2012-11-17 06:56:00
2:56 AM,53.1,48.9,86,30.19,10.0,North,6.9,-,N/A,,Overcast,350,2012-11-17 07:56:00
3:56 AM,53.1,48.9,86,30.19,10.0,North,6.9,-,N/A,,Overcast,350,2012-11-17 08:56:00
4:56 AM,54.0,50.0,86,30.19,10.0,NNW,6.9,-,N/A,,Overcast,330,2012-11-17 09:56:00
5:56 AM,53.1,50.0,89,30.21,10.0,NNW,6.9,-,N/A,,Overcast,340,2012-11-17 10:56:00
6:56 AM,53.1,50.0,89,30.22,10.0,North,6.9,-,N/A,,Overcast,350,2012-11-17 11:56:00
7:56 AM,53.1,48.9,86,30.23,10.0,NNW,8.1,-,N/A,,Overcast,340,2012-11-17 12:56:00
8:46 AM,55.4,50.0,82,30.24,10.0,North,8.1,-,N/A,,Overcast,10,2012-11-17 13:46:00
8:56 AM,55.9,51.1,84,30.24,10.0,North,12.7,-,N/A,,Overcast,10,2012-11-17 13:56:00
9:56 AM,57.9,52.0,81,30.25,10.0,NNE,11.5,-,N/A,,Overcast,30,2012-11-17 14:56:00
10:56 AM,60.1,52.0,75,30.25,10.0,North,16.1,21.9,N/A,,Mostly Cloudy,10,2012-11-17 15:56:00
11:26 AM,60.8,51.8,72,30.24,10.0,NNE,15.0,-,N/A,,Mostly Cloudy,30,2012-11-17 16:26:00
11:56 AM,60.8,51.8,72,30.24,10.0,NNE,13.8,23.0,N/A,,Mostly Cloudy,20,2012-11-17 16:56:00
12:56 PM,59.0,51.1,75,30.22,10.0,NNE,15.0,21.9,N/A,,Mostly Cloudy,20,2012-11-17 17:56:00
1:25 PM,60.8,51.8,72,30.21,10.0,NNE,12.7,-,N/A,,Mostly Cloudy,20,2012-11-17 18:25:00
1:56 PM,60.1,51.1,72,30.21,10.0,NNE,12.7,20.7,N/A,,Mostly Cloudy,20,2012-11-17 18:56:00
2:36 PM,57.2,50.0,77,30.22,10.0,NNE,16.1,-,N/A,,Mostly Cloudy,20,2012-11-17 19:36:00
2:56 PM,57.0,50.0,77,30.22,10.0,NE,17.3,24.2,N/A,,Mostly Cloudy,40,2012-11-17 19:56:00
3:22 PM,55.4,50.0,82,30.22,10.0,North,12.7,20.7,N/A,,Mostly Cloudy,10,2012-11-17 20:22:00
3:56 PM,55.9,50.0,80,30.23,10.0,NNE,13.8,-,N/A,,Overcast,20,2012-11-17 20:56:00
4:56 PM,55.9,50.0,80,30.23,10.0,NNE,13.8,-,N/A,,Overcast,30,2012-11-17 21:56:00
5:34 PM,55.4,50.0,82,30.24,10.0,NNE,12.7,17.3,N/A,,Overcast,20,2012-11-17 22:34:00
5:56 PM,55.9,48.9,77,30.25,10.0,NNE,13.8,20.7,N/A,,Overcast,20,2012-11-17 22:56:00
6:56 PM,55.9,48.0,75,30.26,10.0,NNE,13.8,19.6,N/A,,Overcast,30,2012-11-17 23:56:00
7:56 PM,55.9,48.0,75,30.26,10.0,North,11.5,19.6,N/A,,Overcast,10,2012-11-18 00:56:00
8:56 PM,55.9,46.9,72,30.26,10.0,NNE,10.4,-,N/A,,Overcast,20,2012-11-18 01:56:00
9:56 PM,55.0,46.9,74,30.27,10.0,North,6.9,-,N/A,,Overcast,10,2012-11-18 02:56:00
10:56 PM,54.0,46.9,77,30.25,10.0,North,9.2,-,N/A,,Overcast,10,2012-11-18 03:56:00
11:56 PM,54.0,46.0,75,30.25,10.0,North,8.1,-,N/A,,Overcast,360,2012-11-18 04:56:00